Location: Unspecified
(0.0000°N, 0.0000°E)
Time: 09:02:07
(UTC+00:00)

Amateur Radio Satellites - All Passes

Search period start: 25 February 2017 08:32
Search period end: 26 February 2017 08:32
Location: Unspecified, 0.0000°N, 0.0000°E

Satellite Date Start Highest point End Downlink Frequencies (MHz)
Time Altitude Azimuth
PRISM 25 Feb 08:43:23 08:47:06 33° 78° (ENE) 08:50:48 437.425
UNISAT 6 25 Feb 08:47:49 08:49:09 11° 77° (ENE) 08:50:29 437.425
TIGRISAT 25 Feb 08:49:11 08:49:36 10° 77° (ENE) 08:50:01 435.000
CUBEBUG 2 25 Feb 09:01:40 09:02:26 10° 283° (WNW) 09:03:13 437.445
AO-73 25 Feb 09:11:39 09:15:17 25° 282° (WNW) 09:18:52 145.935
Oscar 11 25 Feb 09:18:56 09:22:21 23° 282° (WNW) 09:25:47 .
SRMSAT 25 Feb 09:23:28 09:28:41 31° 199° (SSW) 09:33:56 437.500
SO-50 25 Feb 09:23:56 09:27:39 26° 248° (WSW) 09:31:24 436.795
DELFI C3 25 Feb 09:34:22 09:38:12 56° 281° (WNW) 09:42:04 145.870
YUBILEINY 25 Feb 09:40:45 09:49:25 59° 93° (E) 09:58:01 435.215
O/OREOS (USA 219) 25 Feb 10:08:49 10:13:00 35° 256° (WSW) 10:17:12 437.305
AIST 2D 25 Feb 10:16:07 10:17:52 13° 79° (E) 10:19:37 435.315
FO-29 25 Feb 10:16:41 10:22:49 68° 77° (ENE) 10:29:46 435.910
JUGNU 25 Feb 10:21:20 10:21:27 10° 183° (S) 10:21:33 437.505
UNISAT 6 25 Feb 10:21:47 10:25:34 29° 259° (WSW) 10:29:24 437.425
TIGRISAT 25 Feb 10:22:07 10:25:59 32° 258° (WSW) 10:29:55 435.000
LO-87 25 Feb 10:24:32 10:28:03 50° 101° (E) 10:31:35 145.935 - 145.965
ESTCUBE 1 25 Feb 11:13:09 11:17:37 79° 280° (W) 11:22:06 437.505/2401.250
DUCHIFAT 1 25 Feb 11:14:37 11:18:39 48° 78° (ENE) 11:22:40 145.980
SRMSAT 25 Feb 11:15:16 11:18:26 15° 192° (SSW) 11:21:37 437.500
EO-79 25 Feb 11:24:51 11:29:04 89° 268° (W) 11:33:16 145.935-145.965
DX 1 25 Feb 11:34:21 11:36:55 15° 103° (ESE) 11:39:29 434.975-435.025
VELOX 1 25 Feb 11:39:58 11:44:18 56° 102° (ESE) 11:48:40 145.980
YUBILEINY 25 Feb 11:40:48 11:45:48 16° 273° (W) 11:50:49 435.215
NANOSAT C BR1 25 Feb 11:42:09 11:46:15 54° 259° (WSW) 11:50:19 145.865
POLYITAN 1 25 Feb 11:42:25 11:46:28 47° 258° (WSW) 11:50:31 437.675
QB50P2 25 Feb 11:45:30 11:49:25 38° 258° (WSW) 11:53:20 145.880/145.840
UKube-1 25 Feb 11:47:11 11:49:38 15° 103° (ESE) 11:52:05 .
AIST 2D 25 Feb 11:48:50 11:50:50 15° 259° (W) 11:52:50 435.315
SPROUT 25 Feb 11:50:22 11:54:36 61° 102° (ESE) 11:58:51 437.525
JUGNU 25 Feb 12:09:39 12:11:40 12° 172° (S) 12:13:41 437.505
BUGSAT 1 25 Feb 12:12:55 12:16:55 90° 144° (SE) 12:20:56 437.445
50 SAT 25 Feb 12:27:49 12:30:56 33° 281° (WNW) 12:34:07 437.505
DX 1 25 Feb 13:09:27 13:12:50 22° 282° (WNW) 13:16:13 434.975-435.025
Oscar 19 25 Feb 13:13:32 13:18:44 81° 259° (W) 13:23:53 437.125/150
UKube-1 25 Feb 13:22:02 13:25:22 22° 282° (WNW) 13:28:45 .
BEESAT 25 Feb 13:27:35 13:29:22 12° 103° (ESE) 13:31:08 436.000
ITAMSAT 1 25 Feb 13:49:51 13:52:00 13° 77° (ENE) 13:54:09 435.822/435.867
NO-84 25 Feb 13:51:00 13:52:39 14° 122° (ESE) 13:54:20 435.350 FM
AO-7 25 Feb 13:51:34 13:56:16 16° 73° (ENE) 14:00:56 .
Gurwin Techsat 1B 25 Feb 13:56:52 14:02:02 53° 257° (WSW) 14:07:11 435.225
JUGNU 25 Feb 13:56:58 14:01:29 22° 164° (SSE) 14:05:58 437.505
PCSat 25 Feb 14:00:31 14:04:52 25° 110° (ESE) 14:09:12 145.827
RS-15 25 Feb 14:14:40 14:21:31 18° 112° (ESE) 14:28:29 29.354- 29.394
ITUPSAT 1 25 Feb 14:55:40 15:00:10 43° 283° (WNW) 15:04:40 437.325
SRMSAT 25 Feb 14:56:42 14:59:02 12° 171° (S) 15:01:22 437.500
BEESAT 25 Feb 15:02:35 15:06:51 34° 282° (WNW) 15:11:08 436.000
AO-85 25 Feb 15:05:30 15:09:24 41° 247° (WSW) 15:13:36 145.980
MOZHAYETS 4 25 Feb 15:24:20 15:28:50 63° 282° (WNW) 15:33:21
ITAMSAT 1 25 Feb 15:26:23 15:31:10 39° 257° (WSW) 15:35:58 435.822/435.867
AO-7 25 Feb 15:40:21 15:48:36 64° 254° (WSW) 15:56:51 .
PCSat 25 Feb 15:43:57 15:47:59 21° 290° (WNW) 15:52:01 145.827
JUGNU 25 Feb 15:44:59 15:50:45 55° 159° (SSE) 15:56:29 437.505
KKS-1 25 Feb 15:56:03 16:00:27 60° 102° (ESE) 16:04:53 437.445
BEESAT 3 25 Feb 16:19:24 16:23:12 45° 68° (ENE) 16:26:57 437.485
RS-15 25 Feb 16:22:11 16:33:28 73° 291° (WNW) 16:45:24 29.354- 29.394
CUBESAT XI-V 25 Feb 16:23:16 16:27:51 75° 102° (ESE) 16:32:27 437.345
STARS 25 Feb 16:30:21 16:34:44 64° 102° (ESE) 16:39:07 437.465
ISS 25 Feb 16:35:15 16:37:54 23° 54° (NE) 16:40:34 437.550
SRMSAT 25 Feb 16:44:12 16:48:56 24° 163° (SSE) 16:53:41 437.500
BEESAT 2 25 Feb 16:57:26 17:01:18 48° 68° (ENE) 17:05:08 435.950
M-CUBED/EXP-1 PRIME 25 Feb 16:58:23 17:02:39 89° 106° (ESE) 17:07:13 437.505
XW-2C 25 Feb 16:58:30 16:59:53 12° 78° (ENE) 17:01:17 145.795 - 145.815
Tancredo 1 25 Feb 17:00:36 17:03:44 67° 55° (NE) 17:06:54 437.200
DOVE 4 25 Feb 17:06:48 17:09:57 20° 79° (E) 17:13:01 437.250
NUDT-PHONESAT 25 Feb 17:10:04 17:11:56 13° 79° (ENE) 17:13:49 437.300
LilacSat-2 25 Feb 17:13:38 17:16:40 22° 79° (ENE) 17:19:42 437.200
JUGNU 25 Feb 17:34:04 17:39:47 53° 339° (NNW) 17:45:28 437.505
KAITUO 1B 25 Feb 18:07:00 18:10:44 63° 259° (W) 18:14:29 145.475/437.950
XW-2F 25 Feb 18:11:53 18:15:29 41° 258° (WSW) 18:19:05 145.980 - 146.000
CUTE-I 25 Feb 18:13:07 18:18:22 65° 257° (WSW) 18:23:38 437.470
HO-68 25 Feb 18:16:37 18:21:58 23° 75° (ENE) 18:27:16 435.675
XW-2D 25 Feb 18:16:42 18:20:08 32° 259° (WSW) 18:23:35 145.860 - 145.880
XW-2B 25 Feb 18:21:53 18:25:11 28° 259° (WSW) 18:28:29 145.730 - 145.750
XW-2A 25 Feb 18:22:21 18:24:48 19° 79° (ENE) 18:27:13 145.665 - 145.685
STRAND 1 25 Feb 18:25:40 18:30:04 29° 103° (ESE) 18:34:26 437.568
XW-2C 25 Feb 18:30:56 18:33:49 20° 259° (WSW) 18:36:42 145.795 - 145.815
SRMSAT 25 Feb 18:32:27 18:38:19 63° 159° (SSE) 18:44:12 437.500
SEEDS 25 Feb 18:38:46 18:40:52 13° 79° (ENE) 18:42:57 437.485
NUDT-PHONESAT 25 Feb 18:43:09 18:45:36 17° 259° (WSW) 18:48:04 437.300
DOVE 4 25 Feb 18:44:55 18:47:23 15° 257° (WSW) 18:49:47 437.250
LilacSat-2 25 Feb 18:49:40 18:50:40 11° 258° (WSW) 18:51:41 437.200
CUTE 1.7 + AOD 2 25 Feb 19:14:53 19:19:11 85° 79° (ENE) 19:23:28 437.475
JUGNU 25 Feb 19:24:42 19:29:02 21° 344° (NNW) 19:33:22 437.505
CUBEBUG 2 25 Feb 19:34:00 19:38:07 51° 79° (ENE) 19:42:20 437.445
AO-73 25 Feb 19:45:35 19:48:28 18° 78° (ENE) 19:51:23 145.935
Oscar 11 25 Feb 19:52:09 19:55:11 19° 78° (ENE) 19:58:12 .
SO-50 25 Feb 19:56:10 20:00:15 28° 112° (ESE) 20:04:17 436.795
AAUSAT CUBESAT 2 25 Feb 20:01:07 20:05:19 87° 259° (W) 20:09:29 437.432
HO-68 25 Feb 20:02:45 20:09:20 40° 255° (WSW) 20:15:56 435.675
STRAND 1 25 Feb 20:05:47 20:08:57 17° 283° (WNW) 20:12:08 437.568
UWE-3 25 Feb 20:11:02 20:15:18 84° 259° (W) 20:19:40 435.000/436.395/437.385
SEEDS 25 Feb 20:12:53 20:16:17 23° 258° (WSW) 20:19:40 437.485
SRMSAT 25 Feb 20:21:50 20:27:31 47° 339° (NNW) 20:33:15 437.500
YUBILEINY 25 Feb 20:24:23 20:26:25 11° 87° (E) 20:28:27 435.215
ZACube-1 25 Feb 20:31:46 20:36:04 84° 258° (WSW) 20:40:28 437.345
O/OREOS (USA 219) 25 Feb 20:42:06 20:44:56 16° 105° (ESE) 20:47:44 437.305
PRISM 25 Feb 20:45:46 20:49:32 36° 102° (ESE) 20:53:20 437.425
UNISAT 6 25 Feb 20:59:23 21:02:33 18° 102° (ESE) 21:05:39 437.425
TIGRISAT 25 Feb 20:59:52 21:02:48 17° 102° (ESE) 21:05:42 435.000
JUGNU 25 Feb 21:17:15 21:18:51 11° 353° (N) 21:20:27 437.505
AO-73 25 Feb 21:21:24 21:24:26 19° 259° (W) 21:27:31 145.935
Oscar 11 25 Feb 21:28:04 21:31:02 18° 258° (WSW) 21:34:00 .
DELFI C3 25 Feb 21:32:45 21:36:41 60° 258° (WSW) 21:40:36 145.870
SO-50 25 Feb 21:37:45 21:40:27 15° 292° (WNW) 21:43:10 436.795
FO-29 25 Feb 21:51:26 21:57:33 37° 101° (E) 22:03:01 435.910
SRMSAT 25 Feb 22:12:49 22:17:03 20° 345° (NNW) 22:21:17 437.500
LO-87 25 Feb 22:13:05 22:16:14 30° 79° (E) 22:19:22 145.935 - 145.965
YUBILEINY 25 Feb 22:14:09 22:22:48 75° 267° (W) 22:31:30 435.215
O/OREOS (USA 219) 25 Feb 22:20:47 22:24:03 20° 284° (WNW) 22:27:18 437.305
UNISAT 6 25 Feb 22:35:35 22:38:58 20° 282° (WNW) 22:42:19 437.425
TIGRISAT 25 Feb 22:35:40 22:39:13 22° 282° (WNW) 22:42:43 435.000
DUCHIFAT 1 25 Feb 23:19:48 23:23:59 59° 102° (ESE) 23:28:09 145.980
ESTCUBE 1 25 Feb 23:27:21 23:31:44 49° 258° (WSW) 23:36:06 437.505/2401.250
EO-79 25 Feb 23:30:49 23:35:04 73° 281° (W) 23:39:19 145.935-145.965
AIST 2D 25 Feb 23:34:07 23:37:01 24° 281° (W) 23:39:54 435.315
FO-29 25 Feb 23:37:34 23:42:09 19° 286° (WNW) 23:46:26 435.910
DX 1 25 Feb 23:43:20 23:46:34 21° 78° (ENE) 23:49:46 434.975-435.025
NANOSAT C BR1 25 Feb 23:47:50 23:51:52 44° 282° (WNW) 23:55:55 145.865
POLYITAN 1 25 Feb 23:48:42 23:52:40 38° 282° (WNW) 23:56:38 437.675
VELOX 1 25 Feb 23:51:30 23:55:55 84° 78° (ENE) 00:00:17 145.980
QB50P2 25 Feb 23:51:50 23:55:38 32° 282° (WNW) 23:59:26 145.880/145.840
UKube-1 25 Feb 23:55:00 23:58:05 19° 78° (ENE) 00:01:09 .
SPROUT 25 Feb 23:57:32 00:01:47 78° 78° (ENE) 00:06:00 437.525
SRMSAT 26 Feb 00:05:34 00:07:07 11° 354° (N) 00:08:40 437.500
Oscar 19 26 Feb 00:10:13 00:13:14 16° 103° (ESE) 00:16:16 437.125/150
50 SAT 26 Feb 00:13:16 00:16:46 61° 259° (W) 00:20:13 437.505
BUGSAT 1 26 Feb 00:15:41 00:19:55 82° 282° (WNW) 00:24:10 437.445
JUGNU 26 Feb 00:55:32 00:59:03 16° 13° (NNE) 01:02:35 437.505
Gurwin Techsat 1B 26 Feb 00:56:16 01:00:46 28° 103° (ESE) 01:05:16 435.225
DX 1 26 Feb 01:19:47 01:22:28 16° 257° (WSW) 01:25:09 434.975-435.025
UKube-1 26 Feb 01:31:03 01:33:50 17° 257° (WSW) 01:36:38 .
NO-84 26 Feb 01:34:06 01:37:37 23° 58° (ENE) 01:41:06 435.350 FM
AO-85 26 Feb 01:39:09 01:42:45 19° 114° (ESE) 01:46:11 145.980
ITUPSAT 1 26 Feb 01:41:31 01:44:52 19° 77° (ENE) 01:48:13 437.325
BEESAT 26 Feb 01:47:26 01:51:13 23° 77° (ENE) 01:54:58 436.000
Oscar 19 26 Feb 01:47:48 01:52:16 31° 282° (WNW) 01:56:45 437.125/150
SRMSAT 26 Feb 01:56:28 01:57:31 10° 5° (N) 01:58:34 437.500
RS-15 26 Feb 01:58:49 02:04:24 14° 65° (ENE) 02:09:49 29.354- 29.394
MOZHAYETS 4 26 Feb 02:08:15 02:08:38 10° 78° (ENE) 02:09:00
AO-7 26 Feb 02:15:47 02:22:31 28° 107° (ESE) 02:29:13 .
ITAMSAT 1 26 Feb 02:22:16 02:26:56 34° 103° (ESE) 02:31:36 435.822/435.867
PCSat 26 Feb 02:35:36 02:41:00 79° 71° (ENE) 02:46:24 145.827
Gurwin Techsat 1B 26 Feb 02:36:51 02:40:25 19° 283° (WNW) 02:44:01 435.225
JUGNU 26 Feb 02:43:08 02:48:32 36° 20° (NNE) 02:53:58 437.505
NO-84 26 Feb 03:11:49 03:15:09 21° 238° (WSW) 03:18:27 435.350 FM
ITUPSAT 1 26 Feb 03:18:44 03:22:25 22° 257° (WSW) 03:26:06 437.325
AO-85 26 Feb 03:18:53 03:22:59 25° 290° (WNW) 03:26:53 145.980
BEESAT 26 Feb 03:25:31 03:28:42 18° 257° (WSW) 03:31:53 436.000
MOZHAYETS 4 26 Feb 03:41:15 03:45:30 37° 258° (WSW) 03:49:45
SRMSAT 26 Feb 03:43:43 03:47:40 18° 14° (NNE) 03:51:36 437.500
ITAMSAT 1 26 Feb 04:03:18 04:06:06 15° 283° (WNW) 04:08:55 435.822/435.867
RS-15 26 Feb 04:05:00 04:16:49 84° 250° (WSW) 04:28:03 29.354- 29.394
AO-7 26 Feb 04:07:25 04:14:54 39° 286° (WNW) 04:22:27 .
KKS-1 26 Feb 04:08:30 04:12:56 89° 259° (W) 04:17:20 437.445
ISS 26 Feb 04:09:43 04:11:41 15° 126° (SE) 04:13:39 437.550
BEESAT 3 26 Feb 04:11:18 04:14:57 44° 112° (ESE) 04:18:36 437.485
JUGNU 26 Feb 04:31:39 04:37:38 84° 201° (SSW) 04:43:40 437.505
Tancredo 1 26 Feb 04:33:10 04:36:11 35° 126° (SE) 04:39:12 437.200
STARS 26 Feb 04:41:11 04:45:32 89° 243° (WSW) 04:49:53 437.465
CUBESAT XI-V 26 Feb 04:41:34 04:46:13 61° 258° (WSW) 04:50:49 437.345
BEESAT 2 26 Feb 04:50:34 04:54:19 50° 112° (ESE) 04:58:05 435.950
M-CUBED/EXP-1 PRIME 26 Feb 04:59:05 05:02:44 86° 74° (ENE) 05:06:06 437.505
LilacSat-2 26 Feb 05:08:24 05:11:01 18° 101° (ESE) 05:13:38 437.200
CUTE-I 26 Feb 05:13:39 05:17:53 24° 103° (ESE) 05:22:08 437.470
DOVE 4 26 Feb 05:25:03 05:29:56 45° 102° (ESE) 05:34:58 437.250
SRMSAT 26 Feb 05:31:39 05:37:16 41° 20° (NNE) 05:42:52 437.500
ISS 26 Feb 05:45:49 05:47:57 16° 306° (NW) 05:50:04 437.550
KAITUO 1B 26 Feb 05:59:26 06:03:08 86° 288° (WNW) 06:06:51 145.475/437.950
XW-2F 26 Feb 06:05:11 06:08:51 53° 281° (W) 06:12:30 145.980 - 146.000
XW-2A 26 Feb 06:07:32 06:07:38 10° 101° (ESE) 06:07:44 145.665 - 145.685
HO-68 26 Feb 06:08:49 06:13:27 18° 105° (ESE) 06:18:04 435.675
XW-2D 26 Feb 06:10:18 06:13:51 40° 281° (W) 06:17:23 145.860 - 145.880
XW-2B 26 Feb 06:15:28 06:18:54 34° 281° (W) 06:22:21 145.730 - 145.750
JUGNU 26 Feb 06:21:32 06:26:48 32° 199° (SSW) 06:32:05 437.505
XW-2C 26 Feb 06:24:27 06:27:34 25° 281° (WNW) 06:30:41 145.795 - 145.815
NUDT-PHONESAT 26 Feb 06:34:23 06:37:19 22° 281° (WNW) 06:40:15 437.300
LilacSat-2 26 Feb 06:43:16 06:45:02 13° 281° (WNW) 06:46:49 437.200
SEEDS 26 Feb 06:43:29 06:45:56 15° 102° (ESE) 06:48:25 437.485
CUTE-I 26 Feb 06:53:35 06:57:39 22° 283° (WNW) 07:01:44 437.470
STRAND 1 26 Feb 06:57:32 07:02:39 75° 78° (ENE) 07:07:45 437.568
DOVE 4 26 Feb 07:06:09 07:07:22 11° 281° (W) 07:08:35 437.250
SRMSAT 26 Feb 07:20:32 07:26:31 74° 202° (SSW) 07:32:29 437.500
CUTE 1.7 + AOD 2 26 Feb 07:21:12 07:25:23 77° 281° (WNW) 07:29:35 437.475
XW-2A 26 Feb 07:37:47 07:40:09 18° 281° (W) 07:42:30 145.665 - 145.685
CUBEBUG 2 26 Feb 07:46:07 07:50:46 81° 100° (E) 07:55:19 437.445
HO-68 26 Feb 07:54:04 08:00:49 47° 284° (WNW) 08:07:38 435.675
AO-73 26 Feb 07:54:35 07:58:06 24° 101° (E) 08:01:33 145.935
Oscar 11 26 Feb 08:00:20 08:03:47 24° 102° (ESE) 08:07:15 .
AAUSAT CUBESAT 2 26 Feb 08:04:34 08:08:39 77° 281° (W) 08:12:46 437.432
SO-50 26 Feb 08:08:23 08:12:43 49° 68° (ENE) 08:17:05 436.795
JUGNU 26 Feb 08:13:07 08:16:24 15° 192° (SSW) 08:19:41 437.505
SEEDS 26 Feb 08:18:24 08:21:22 19° 281° (WNW) 08:24:20 437.485
UWE-3 26 Feb 08:22:15 08:26:42 57° 282° (WNW) 08:31:03 435.000/436.395/437.385
